[[{"header":{"parameterUnit":"m.s-1","parameterCategory":1,"la1":30.2991,"la2":30.254,"lo1":-89.0895,"lo2":-89.0444,"dy":0.0017,"dx":0.0017,"nx":28,"ny":28,"refTime":"2023-10-31T21:00:00:Z","depth":0,"parameterNumber":2,"parameterNumberName":"U-component_of_WINDS"},"data":[0,0,0,0,0,0,0,0,0,0,0,0,0,0,0,0,0,0,0,0,0,0,0,0,0,0,0,0,0,0,0,0,0,0,0,0,0,0,0,0,0,0,0,0,0,0,0,0,0,0,0,0,0,0,0,0,0,0,0.028,0.028,0,0.0214,0.0213,0.0213,0.0213,0.0213,0.0214,0.0215,0.0145,0.0142,0.014,0,0,0,0,0,0,0,0,0,0,0,0,0,0.0406,0.0404,0.0281,0.028,0.0279,0.0214,0.0213,0.0212,0.0212,0.0214,0.0215,0.0216,0.0146,0.0143,0.0139,0,0,0,0,0,0,0,0,0,0,0,0,0,0.0347,0.0403,0.0281,0.0271,0.027,0.0214,0.0213,0.0212,0.0212,0.0214,0.0215,0.0216,0.0147,0.0143,0.0139,0.0088,0,0,0.0127,0.0125,0,0,0,0,0,0,0,0,0.035,0.0342,0.0273,0.0272,0.027,0.0223,0.0232,0.017,0.0212,0.0234,0.0215,0.0217,0.017,0.0164,0.0148,0.0085,0.0082,0.0126,0.0124,0.0122,0.0121,0,0,0,0,0,0,0,0.0354,0.0345,0.0254,0.0272,0.027,0.027,0.0263,0.022,0.0195,0.0232,0.0232,0.0224,0.0169,0.0152,0.0147,0.0081,0.0126,0.0123,0.012,0.0119,-0.0027,-0.0029,0,0,0,0,0,0,0.0361,0.0349,0.0256,0.0252,0.0314,0.0267,0.0259,0.0237,0.0196,0.0191,0.0223,0.0225,0.0159,0.0151,0.0144,0.0082,0.0122,0.0118,0.0116,-0.0026,-0.0028,-0.0029,0,0,0,0,0,0,0.0363,0.0352,0.0259,0.03,0.0288,0.0263,0.0238,0.0235,0.0218,0.0189,0.0184,0.0211,0.0159,0.015,0.0102,0.008,0.0116,0.0113,-0.0024,-0.0026,-0.0028,-0.0043,0,0,0,0,0,0,0.0367,0.0353,0.0334,0.03,0.0286,0.0218,0.0237,0.0232,0.0211,0.0212,0.0176,0.0171,0.016,0.0108,0.0098,0.0075,0.011,-0.0022,-0.0025,-0.0028,-0.0041,-0.0045,-0.005,0,0,0,0,0,0.0371,0.0332,0.0333,0.0322,0.0261,0.0217,0.0209,0.0197,0.021,0.019,0.0171,0.0172,0.0084,0.0103,0.0092,0.0067,-0.0021,-0.0024,-0.0027,-0.0039,-0.0045,-0.0049,0,0,0,0,0,0,0.0362,0.0327,0.0328,0.0276,0.025,0.0217,0.0191,0.0191,0.016,0.0162,0.0148,0.014,0.0092,0.0075,0.0097,0.0016,0.0033,0.0027,0.0028,0.0023,0.0018,0.0023,0.0106,0,0,0,0,0,0.0354,0.0322,0.0293,0.025,0.0236,0.0216,0.0196,0.019,0.0161,0.015,0.0128,0.01,0.0066,0.0044,0.0011,-0.0042,-0.005,-0.0065,-0.0069,-0.0073,-0.0078,-0.0107,-0.0114,-0.004,-0.004,-0.004,0,0,0.0337,0.0314,0.0294,0.0247,0.0226,0.0192,0.0207,0.017,0.0145,0.0144,0.0098,0.0081,0.0049,-0.0001,-0.0025,-0.0017,-0.01,-0.0077,-0.008,-0.0083,-0.0111,-0.0118,-0.0124,-0.0042,-0.0042,-0.0041,0,0,0.0288,0.0268,0.023,0.0209,0.0177,0.0164,0.0155,0.0123,0.0112,0.0066,0.0065,0.0035,-0.0023,-0.0046,-0.0065,-0.0119,-0.012,-0.0129,-0.0154,-0.0182,-0.0188,-0.0193,-0.0213,-0.022,-0.0134,-0.0134,-0.0134,0,0.027,0.0219,0.021,0.0173,0.0153,0.0153,0.0114,0.0094,0.0053,0.0039,0.0049,-0.0024,-0.0045,-0.0101,-0.0114,-0.0129,-0.014,-0.0127,-0.0186,-0.0191,-0.0196,-0.0216,-0.0223,-0.0135,-0.0135,-0.0135,-0.0135,0,0.0199,0.0164,0.0137,0.0099,0.0076,0.0038,0.0023,0.0001,-0.0003,-0.0017,-0.0063,-0.0089,-0.0126,-0.014,-0.0144,-0.0196,-0.019,-0.0183,-0.0166,-0.0204,-0.0223,-0.023,-0.0137,-0.0137,-0.0136,-0.0136,0,0,0.0139,0.0098,0.0088,0.0071,0.0037,0.001,-0.0027,-0.0062,-0.0082,-0.0109,-0.0141,-0.0188,-0.0182,-0.0203,-0.021,-0.0234,-0.0276,-0.0224,-0.0225,-0.0234,-0.0334,-0.0341,-0.0349,-0.0275,-0.0276,-0.0278,-0.0332,0,0.0086,0.0021,0.0012,-0.0046,-0.0078,-0.0077,-0.0109,-0.0133,-0.0146,-0.0176,-0.019,-0.0224,-0.0212,-0.0225,-0.0249,-0.0266,-0.0297,-0.0262,-0.0306,-0.0307,-0.0299,-0.0359,-0.0366,-0.0416,-0.0339,-0.034,-0.0341,0,0.0014,-0.0014,-0.0075,-0.0103,-0.0117,-0.0146,-0.0178,-0.0206,-0.0233,-0.0241,-0.0263,-0.0267,-0.0305,-0.0284,-0.0337,-0.0313,-0.0331,-0.0342,-0.0344,-0.035,-0.0328,-0.0367,-0.0432,-0.044,-0.0352,-0.0351,-0.0351,0,-0.0025,-0.0078,-0.0121,-0.0135,-0.0169,-0.0189,-0.0204,-0.0229,-0.025,-0.0278,-0.0292,-0.0324,-0.0342,-0.0367,-0.0379,-0.0363,-0.0431,-0.0412,-0.0439,-0.0439,-0.0456,-0.0455,-0.0525,-0.0464,-0.0464,-0.0464,-0.0464,0,-0.0085,-0.0122,-0.0138,-0.0165,-0.0207,-0.0216,-0.0257,-0.0271,-0.0293,-0.0323,-0.0323,-0.0351,-0.0364,-0.0394,-0.0403,-0.0445,-0.0453,-0.0461,-0.0463,-0.0462,-0.0461,-0.0475,-0.0472,-0.0466,-0.0465,-0.0465,-0.0465,0,-0.0136,-0.0148,-0.0195,-0.0222,-0.023,-0.0259,-0.0283,-0.0309,-0.032,-0.0357,-0.0366,-0.0385,-0.042,-0.0433,-0.0476,-0.0481,-0.053,-0.0529,-0.0521,-0.0523,-0.0549,-0.0547,-0.0633,-0.0645,-0.0574,-0.0575,-0.0576,0,-0.0174,-0.0203,-0.0232,-0.0252,-0.0267,-0.0298,-0.0319,-0.0328,-0.0349,-0.038,-0.0402,-0.0436,-0.0464,-0.052,-0.0537,-0.0569,-0.057,-0.0597,-0.0575,-0.0572,-0.0572,-0.057,-0.0573,-0.0603,-0.0603,-0.0604,-0.0604,0,-0.0242,-0.0246,-0.0275,-0.0305,-0.0329,-0.0354,-0.0378,-0.0394,-0.0406,-0.043,-0.0465,-0.0486,-0.0529,-0.0563,-0.0595,-0.0611,-0.061,-0.0611,-0.0619,-0.0619,-0.0614,-0.0618,-0.0534,-0.0609,-0.0609,-0.0609,-0.0608,-0.0608,-0.0289,-0.0314,-0.0338,-0.037,-0.0388,-0.041,-0.0436,-0.0449,-0.0478,-0.0513,-0.0516,-0.0554,-0.0578,-0.0622,-0.0638,-0.0668,-0.0661,-0.0672,-0.0676,-0.0679,-0.0681,-0.0607,-0.0674,-0.0673,-0.0673,-0.0673,-0.0673,0,-0.0357,-0.0371,-0.04,-0.0433,-0.0458,-0.0453,-0.0479,-0.05,-0.0533,-0.0555,-0.0582,-0.0622,-0.0654,-0.0673,-0.0705,-0.0725,-0.0725,-0.0733,-0.0733,-0.0737,-0.0685,-0.0675,-0.0733,-0.0733,-0.0733,-0.0733,-0.0732,-0.0732,-0.0395,-0.0437,-0.0444,-0.0495,-0.0509,-0.0545,-0.0561,-0.0581,-0.0599,-0.0642,-0.0669,-0.068,-0.0701,-0.0735,-0.0764,-0.0768,-0.0781,-0.079,-0.0794,-0.0746,-0.074,-0.0735,-0.0725,-0.0792,-0.0792,-0.0843,-0.0843,-0.0844]},{"header":{"parameterUnit":"m.s-1","parameterCategory":1,"la1":30.2991,"la2":30.254,"lo1":-89.0895,"lo2":-89.0444,"dy":0.0017,"dx":0.0017,"nx":28,"ny":28,"refTime":"2023-10-31T21:00:00:Z","depth":0,"parameterNumber":3,"parameterNumberName":"V-component_of_WINDS"},"data":[0,0,0,0,0,0,0,0,0,0,0,0,0,0,0,0,0,0,0,0,0,0,0,0,0,0,0,0,0,0,0,0,0,0,0,0,0,0,0,0,0,0,0,0,0,0,0,0,0,0,0,0,0,0,0,0,0,0,-10.63,-10.6302,0,-10.6484,-10.6486,-10.6488,-10.6365,-10.6359,-10.6354,-10.6348,-10.6529,-10.6539,-10.6548,0,0,0,0,0,0,0,0,0,0,0,0,0,-10.5835,-10.5844,-10.63,-10.6303,-10.6305,-10.6484,-10.6486,-10.6489,-10.6366,-10.6359,-10.6352,-10.6346,-10.6525,-10.6537,-10.6549,0,0,0,0,0,0,0,0,0,0,0,0,0,-10.603,-10.5847,-10.63,-10.6265,-10.6264,-10.6483,-10.6487,-10.649,-10.6367,-10.6359,-10.6351,-10.6343,-10.6522,-10.6536,-10.6551,-10.6812,0,0,-10.6597,-10.6603,0,0,0,0,0,0,0,0,-10.6019,-10.6047,-10.6268,-10.6268,-10.6267,-10.6393,-10.6388,-10.6598,-10.637,-10.6328,-10.6348,-10.6339,-10.649,-10.6507,-10.656,-10.6821,-10.6828,-10.6598,-10.6607,-10.6614,-10.6618,0,0,0,0,0,0,0,-10.6005,-10.6038,-10.6373,-10.6271,-10.6271,-10.6238,-10.6256,-10.6427,-10.6453,-10.6331,-10.6322,-10.6346,-10.6488,-10.6546,-10.6563,-10.6831,-10.6598,-10.6611,-10.6621,-10.6626,-10.7315,-10.7324,0,0,0,0,0,0,-10.5996,-10.6028,-10.6367,-10.6378,-10.612,-10.6253,-10.6274,-10.6361,-10.6451,-10.6457,-10.6353,-10.634,-10.6524,-10.6546,-10.6569,-10.6881,-10.6614,-10.6628,-10.6637,-10.7306,-10.7317,-10.7327,0,0,0,0,0,0,-10.5986,-10.6027,-10.6359,-10.6201,-10.6241,-10.627,-10.6369,-10.6369,-10.6427,-10.6469,-10.6472,-10.6408,-10.6518,-10.6548,-10.6753,-10.6886,-10.6635,-10.6648,-10.7295,-10.731,-10.7322,-10.7508,0,0,0,0,0,0,-10.5974,-10.6025,-10.6126,-10.6204,-10.625,-10.6544,-10.6377,-10.6379,-10.6454,-10.6438,-10.6521,-10.6526,-10.6514,-10.6732,-10.6768,-10.6902,-10.666,-10.7283,-10.7302,-10.7318,-10.749,-10.7527,-10.7558,0,0,0,0,0,-10.5957,-10.6169,-10.6132,-10.6173,-10.6377,-10.6552,-10.6577,-10.6561,-10.6465,-10.6566,-10.6593,-10.6523,-10.6865,-10.6754,-10.6794,-10.6934,-10.7275,-10.7297,-10.7317,-10.7475,-10.752,-10.7557,0,0,0,0,0,0,-10.6102,-10.6179,-10.6138,-10.6382,-10.6462,-10.653,-10.6657,-10.6609,-10.6715,-10.6696,-10.6668,-10.6688,-10.6904,-10.6939,-10.6813,-10.7192,-10.7055,-10.7085,-10.7161,-10.7204,-10.7237,-10.7224,-10.6673,0,0,0,0,0,-10.6163,-10.6301,-10.6359,-10.6568,-10.6611,-10.6628,-10.6703,-10.6684,-10.6764,-10.6797,-10.6838,-10.6917,-10.7041,-10.7124,-10.7241,-10.7495,-10.751,-10.7611,-10.7644,-10.7672,-10.7698,-10.7835,-10.788,-10.7396,-10.7396,-10.7395,0,0,-10.6289,-10.6348,-10.6436,-10.6599,-10.6658,-10.68,-10.6657,-10.6812,-10.6916,-10.6819,-10.7017,-10.705,-10.7136,-10.7367,-10.747,-10.7403,-10.7835,-10.7699,-10.772,-10.7732,-10.7861,-10.7907,-10.7948,-10.741,-10.7408,-10.7405,0,0,-10.6592,-10.6651,-10.6832,-10.6896,-10.6989,-10.6999,-10.7042,-10.712,-10.7139,-10.7338,-10.7269,-10.739,-10.7606,-10.767,-10.7731,-10.8059,-10.7999,-10.8098,-10.8274,-10.8408,-10.8446,-10.848,-10.8597,-10.8639,-10.8124,-10.8124,-10.8124,0,-10.6736,-10.6949,-10.693,-10.7093,-10.7166,-10.7088,-10.727,-10.7331,-10.7457,-10.7509,-10.7432,-10.7702,-10.7754,-10.7999,-10.808,-10.8131,-10.8179,-10.8088,-10.8442,-10.8476,-10.8507,-10.8619,-10.8663,-10.8136,-10.8134,-10.8133,-10.8132,0,-10.7122,-10.7271,-10.7406,-10.7533,-10.7621,-10.7792,-10.7798,-10.7889,-10.7862,-10.788,-10.8083,-10.8143,-10.8271,-10.8327,-10.8302,-10.857,-10.8525,-10.8446,-10.8308,-10.8565,-10.867,-10.8712,-10.8152,-10.8148,-10.8144,-10.8142,0,0,-10.7521,-10.7637,-10.7687,-10.7744,-10.7842,-10.7955,-10.8122,-10.8251,-10.8329,-10.8418,-10.8557,-10.8742,-10.867,-10.874,-10.872,-10.8837,-10.9094,-10.8744,-10.8745,-10.8807,-10.9393,-10.9452,-10.9502,-10.9055,-10.9063,-10.9069,-10.9386,0,-10.783,-10.8125,-10.8113,-10.8388,-10.8524,-10.8452,-10.8597,-10.8672,-10.8693,-10.881,-10.8831,-10.8964,-10.8858,-10.89,-10.9013,-10.9039,-10.9211,-10.9016,-10.9182,-10.9188,-10.9164,-10.9557,-10.962,-10.9916,-10.9426,-10.9433,-10.9438,0,-10.8229,-10.8336,-10.8625,-10.8704,-10.876,-10.8892,-10.9009,-10.9122,-10.9204,-10.9211,-10.929,-10.9252,-10.9418,-10.9276,-10.9505,-10.9372,-10.9439,-10.9462,-10.9473,-10.9488,-10.9329,-10.9583,-11.001,-11.0055,-10.9502,-10.9497,-10.9493,0,-10.8492,-10.8707,-10.8909,-10.8959,-10.9056,-10.915,-10.9194,-10.9268,-10.9346,-10.9448,-10.9498,-10.9616,-10.9681,-10.9773,-10.9767,-10.9664,-10.9999,-10.9856,-11.0008,-11.0009,-11.0083,-11.0078,-11.0527,-11.0125,-11.0125,-11.0124,-11.0123,0,-10.8838,-10.9018,-10.9028,-10.9152,-10.9351,-10.9335,-10.9531,-10.9565,-10.9632,-10.9759,-10.9703,-10.9823,-10.9808,-10.9928,-10.9924,-11.0114,-11.0143,-11.0152,-11.0149,-11.0158,-11.0157,-11.0202,-11.0181,-11.0135,-11.0133,-11.0131,-11.0129,0,-10.9166,-10.918,-10.9395,-10.947,-10.9492,-10.9636,-10.9698,-10.9814,-10.9831,-10.9993,-11.0029,-11.0055,-11.0193,-11.0197,-11.0354,-11.0351,-11.0584,-11.0557,-11.0558,-11.0553,-11.0705,-11.0691,-11.1199,-11.1265,-11.082,-11.0824,-11.0828,0,-10.9387,-10.9524,-10.9614,-10.9697,-10.9748,-10.9882,-10.9962,-10.9951,-11.0037,-11.0142,-11.0245,-11.0379,-11.0486,-11.071,-11.0741,-11.0861,-11.0837,-11.1007,-11.0855,-11.086,-11.084,-11.0833,-11.0846,-11.1037,-11.1041,-11.1046,-11.1049,0,-10.9777,-10.9777,-10.9897,-11.0022,-11.012,-11.0216,-11.0304,-11.0374,-11.0373,-11.0472,-11.0615,-11.0698,-11.0861,-11.0995,-11.1112,-11.1153,-11.1102,-11.1097,-11.1138,-11.1149,-11.1144,-11.115,-11.064,-11.1085,-11.1081,-11.1079,-11.1077,-11.1075,-11.0058,-11.0177,-11.026,-11.0396,-11.0462,-11.0547,-11.066,-11.0692,-11.0812,-11.0946,-11.0931,-11.109,-11.1168,-11.1321,-11.1372,-11.1495,-11.1436,-11.1496,-11.1511,-11.1527,-11.1544,-11.1125,-11.1516,-11.1515,-11.1514,-11.1513,-11.1512,0,-11.0446,-11.0496,-11.0621,-11.0749,-11.0856,-11.08,-11.0895,-11.0988,-11.113,-11.1208,-11.1315,-11.1479,-11.1609,-11.165,-11.1775,-11.1865,-11.1844,-11.1898,-11.1891,-11.1902,-11.1589,-11.1541,-11.1913,-11.1913,-11.1913,-11.1912,-11.1912,-11.1912,-11.066,-11.0859,-11.087,-11.1101,-11.1148,-11.1307,-11.1366,-11.1443,-11.1506,-11.1693,-11.1802,-11.1829,-11.1892,-11.2021,-11.2137,-11.2145,-11.2194,-11.2258,-11.2257,-11.1964,-11.1924,-11.1885,-11.184,-11.2269,-11.2269,-11.2559,-11.2562,-11.2564]}]]